Location: Unspecified
(0.0000°N, 0.0000°E)
Time: 03:34:28
(UTC+00:00)

Vanguard 2 Rocket - Pass Details

Date: 13 December 2018
Orbit: 554 x 3327 km, 32.9° (Epoch: 16 January)

Event Time Altitude Azimuth Distance (km) Brightness Sun altitude
Rises 17:45:02 0° 268° (W) 6,354 12.8 2.1°
Reaches altitude 10° 17:49:52 10° 257° (WSW) 5,679 13.0 1.0°
Maximum altitude 18:04:51 29° 203° (SSW) 4,797 11.2 -2.4°
Drops below altitude 10° 18:21:02 10° 149° (SSE) 6,051 11.0 -6.1°
Sets 18:26:35 0° 138° (SE) 6,803 11.2 -7.4°
